Estación Meteorológica Peña el Pijo (Robertgarden) [ 07/12/20 01:03:09 CEST ]

Fecha Hora Presion(HPa) Temp (°C) Humedad % Rocio (°C) Viento ( m/s) Direccion Lluvia 1Hora(mm) Lluvia 24H(mm) LLuvia Total(mm)
2019-Dec-27 01:09:06 1017.600 - - - - WNW     39.88
2019-Dec-27 02:09:48 1017.900 - - - - WNW     39.88
2019-Dec-27 03:10:31 1018.000 - - - - WNW     39.88
2019-Dec-27 04:10:44 1018.000 - - - - WNW     39.88
2019-Dec-27 05:11:51 1017.500 - - - - WNW     39.88
2019-Dec-27 06:09:19 1017.400 - - - - WNW     39.88
2019-Dec-27 07:09:34 1017.300 - - - - WNW     39.88
2019-Dec-27 08:09:03 1017.300 - - - - WNW     39.88
2019-Dec-27 09:08:55 1017.700 - - - - WNW     39.88
2019-Dec-27 10:09:01 1017.900 - - - - WNW     39.88
2019-Dec-27 11:09:07 1017.500 - - - - WNW     39.88
2019-Dec-27 12:09:09 1017.400 - - - - WNW     39.88
2019-Dec-27 13:09:06 1016.800 - - - - WNW     39.88
2019-Dec-27 14:09:34 1016.200 - - - - WNW     39.88
2019-Dec-27 15:09:17 1016.200 - - - - WNW     39.88
2019-Dec-27 16:09:21 1016.300 - - - - WNW     39.88
2019-Dec-27 17:09:08 1016.600 - - - - WNW     39.88
2019-Dec-27 18:09:17 1016.600 - - - - WNW     39.88
2019-Dec-27 19:09:02 1016.900 - - - - WNW     39.88
2019-Dec-27 20:09:02 1017.000 - - - - WNW     39.88
2019-Dec-27 21:09:20 1017.300 - - - - WNW     39.88
2019-Dec-27 22:09:05 1017.700 - - - - WNW     39.88
2019-Dec-27 23:09:16 1018.100 - - - - WNW     39.88

Temperatura Máxima:    Temperatura Mínima:
Presión Máxima:1018.100 Hpa    Presión Mínima:1016.200 Hpa


Volver